User: anonymous   Login
Location: *
(90.0000°N, 180.0000°W)
Time: 18:32:10
(UTC+02:00)
Language:

Cosmos 1825 - Orbit

View from above orbital plane
View from above orbital plane
View from above satellite
View from above satellite

Ground track
Ground track

The orbit data is extracted from the following two-line orbital elements,

1 17566U 87024A   18140.92648863 +.00000482 +00000-0 +21311-4 0  9992
2 17566 082.5030 315.1752 0005370 111.2137 248.9671 15.19247820704827
Epoch (UTC): 20 May 2018 22:14:08
Eccentricity: 0.0005370
inclination: 82.5030°
perigee height: 504 km
apogee height: 512 km
right ascension of ascending node: 315.1752°
argument of perigee: 111.2137°
revolutions per day: 15.19247820
mean anomaly at epoch: 248.9671°
orbit number at epoch: 70482

The dashed part of the orbit path shows where the satellite is in the earth's shadow,  

DLR